STARLINK-11671 [DTC]

Last updated on Thu Jul 03 2025 00:02:06 GMT+0000 (Coordinated Universal Time)

1 64319U 25124C 25183.21953037 .00138188 00000+0 78266-3 0 9996 2 64319 43.0004 99.7206 0001806 260.2309 99.8357 15.77897884 3431
UTC large
Height (km)
Speed (km/s)
/
Latitude / Longitude
Inclination (degrees)
Orbital Period (minutes)
Azimuth
Elevation
Range (km)
Doppler Factor

Next 0 passes for location: London (51.5072 / 0.1276)

Sorry there are no passes over London.